This demonstration page uses our WeatherBlox Daily Observations layout. Learn more.

Left ArrowRight Arrow

39.01783, -85.05884

Hourly Observations for October 4, 2019

Temp ( °F °C ) Dew Point ( °F °C ) Humidity (%) Winds ( mph kmh ) Pressure ( in mb ) Visibility ( mi km ) Precip ( " mm )
12:52 am 00:52 Clear 66 18.9 55 12.8 68 68 NNW 10 17 30.11 1020 10 16 0.00 0.00
1:52 am 01:52 Mostly Clear 63 17.2 53 11.7 70 70 N 14 22 30.13 1020 10 16 0.00 0.00
2:52 am 02:52 Mostly Clear 62 16.7 52 11.1 70 70 NNE 16 26 30.15 1021 10 16 0.00 0.00
3:27 am 03:27 Mostly Cloudy 61 16.1 52 11.1 72 72 N 14 22 30.18 1022 10 16 0.00 0.00
3:52 am 03:52 Cloudy 61 16.1 50 10 67 67 NNE 18 30 30.16 1021 10 16 0.00 0.00
4:34 am 04:34 Mostly Cloudy 59 15 47 8.3 64 64 N 16 26 30.20 1023 10 16 0.00 0.00
4:52 am 04:52 Mostly Cloudy 59 15 47 8.3 64 64 NNE 16 26 30.18 1022 10 16 0.00 0.00
5:52 am 05:52 Mostly Cloudy 58 14.4 44 6.7 60 60 NNE 14 22 30.20 1023 10 16 0.00 0.00
6:52 am 06:52 Mostly Clear 56 13.3 44 6.7 65 65 NNE 13 20 30.23 1024 10 16 0.00 0.00
7:52 am 07:52 Mostly Sunny 56 13.3 44 6.7 65 65 NNE 12 19 30.25 1024 10 16 0.00 0.00
8:52 am 08:52 Sunny 57 13.9 44 6.7 62 62 NE 10 17 30.27 1025 10 16 0.00 0.00
9:52 am 09:52 Mostly Sunny 60 15.6 44 6.7 56 56 NNE 13 20 30.27 1025 10 16 0.00 0.00
10:52 am 10:52 Mostly Sunny 62 16.7 43 6.1 50 50 N 10 17 30.28 1025 10 16 0.00 0.00
11:52 am 11:52 Mostly Sunny 63 17.2 43 6.1 48 48 NNE 14 22 30.27 1025 10 16 0.00 0.00
12:52 pm 12:52 Mostly Sunny 66 18.9 43 6.1 43 43 NE 10 17 30.26 1025 10 16 0.00 0.00
1:52 pm 13:52 Mostly Sunny 68 20 42 5.6 39 39 NE 8 13 30.25 1024 10 16 0.00 0.00
2:52 pm 14:52 Mostly Sunny 69 20.6 42 5.6 38 38 NNE 10 17 30.23 1024 10 16 0.00 0.00
3:52 pm 15:52 Mostly Sunny 71 21.7 42 5.6 35 35 NE 15 24 30.21 1023 10 16 0.00 0.00
4:52 pm 16:52 Mostly Sunny 71 21.7 42 5.6 35 35 NE 12 19 30.20 1023 10 16 0.00 0.00
5:52 pm 17:52 Mostly Sunny 69 20.6 42 5.6 38 38 ENE 9 15 30.21 1023 10 16 0.00 0.00
6:52 pm 18:52 Mostly Sunny 68 20 42 5.6 39 39 NNE 12 19 30.22 1023 10 16 0.00 0.00
7:52 pm 19:52 Mostly Clear 65 18.3 43 6.1 45 45 NNE 12 19 30.22 1023 10 16 0.00 0.00
8:52 pm 20:52 Mostly Clear 63 17.2 44 6.7 50 50 NE 10 17 30.23 1024 10 16 0.00 0.00
9:52 pm 21:52 Mostly Clear 62 16.7 44 6.7 52 52 NE 12 19 30.24 1024 10 16 0.00 0.00
10:52 pm 22:52 Mostly Clear 61 16.1 45 7.2 56 56 NE 13 20 30.24 1024 10 16 0.00 0.00
11:52 pm 23:52 Mostly Clear 59 15 45 7.2 60 60 NE 13 20 30.24 1024 10 16 0.00 0.00

Powered by AerisWeather